Regional Weather Roundup
Issued by NWS

Home | Current Version | Previous Version | Text Only | Print | Product List | Glossary On
Versions: 1 2 3 4 5 6 7 8 9 10 11 12 13 14 15 16 17 18 19 20 21 22 23 24 25 26 27 28 29 30 31 32 33 34 35 36 37 38 39 40 41 42 43 44 45 46 47 48 49 50
000
ASUS42 KFFC 210610
RWRGA
WEATHER ROUNDUP FOR GEORGIA
NATIONAL WEATHER SERVICE PEACHTREE CITY GA
100 AM EST TUE NOV 21 2017

NOTE: "FAIR" INDICATES FEW OR NO CLOUDS BELOW 12,000 FEET WITH NO
SIGNIFICANT WEATHER AND/OR OBSTRUCTIONS TO VISIBILITY.

* = USE WITH CAUTION. THE STATIONS MARKED WITH AN ASTERISK MAY NOT
REPORT WEATHER SUCH AS PRECIPITATION, FOG, OR THUNDER AND ARE NOT
QUALITY CONTROLLED BY NWS.

THE REMARK "TC" DENOTES TEMPERATURE READING IN DEGREES CELSIUS.

GAZ001>058-210700-
NORTH GEORGIA

CITY           SKY/WX    TMP DP  RH WIND       PRES   REMARKS
ATLANTA        CLOUDY    43  37  79 E6        30.17F
6HR MIN TEMP:  43; 6HR MAX TEMP:  52;

ATHENS         CLOUDY    43  38  82 NE5       30.21S
6HR MIN TEMP:  37; 6HR MAX TEMP:  43;

CHAMBLEE       CLOUDY    42  33  70 CALM      30.18F
6HR MIN TEMP:  40; 6HR MAX TEMP:  49;

PEACHTREE CITY MOCLDY    40  38  93 CALM      30.18F
6HR MIN TEMP:  37; 6HR MAX TEMP:  45;

ROME           CLOUDY    36  35  96 CALM      30.17S
6HR MIN TEMP:  36; 6HR MAX TEMP:  45;

WEST ATLANTA   CLOUDY    38  37  97 CALM      30.18S
6HR MIN TEMP:  36; 6HR MAX TEMP:  50;

GAINESVILLE    CLOUDY    46  30  53 E6        30.21S
6HR MIN TEMP:  43; 6HR MAX TEMP:  48;

CARTERSVILLE   CLOUDY    42  35  76 SE3       30.18F
6HR MIN TEMP:  36; 6HR MAX TEMP:  43;



CITY           SKY/WX    TMP DP  RH WIND       PRES   REMARKS
DALTON*        CLOUDY    45  34  65 S7        30.17S
LAWRENCEVILLE* CLOUDY    41  35  79 NE3         N/A
MARIETTA       CLOUDY    40  34  79 CALM      30.17F
CANTON*        CLOUDY    45  34  65 E3        30.19F
$$

GAZ059>098-102>109-210700-
CENTRAL GEORGIA

CITY           SKY/WX    TMP DP  RH WIND       PRES   REMARKS
AUGUSTA-BUSH   PTCLDY    37  35  92 CALM      30.22R
6HR MIN TEMP:  37; 6HR MAX TEMP:  45;

AUGUSTA-DANIEL PTCLDY    47  35  63 E5        30.22S
6HR MIN TEMP:  47; 6HR MAX TEMP:  54;

COLUMBUS       PTCLDY    47  37  68 CALM      30.15F
6HR MIN TEMP:  44; 6HR MAX TEMP:  54;

MACON          PTCLDY    43  41  93 CALM      30.17F
6HR MIN TEMP:  41; 6HR MAX TEMP:  50;

ROBINS AFB     MOCLDY    44  41  90 NW3       30.17F


CITY           SKY/WX    TMP DP  RH WIND       PRES   REMARKS
LAGRANGE*      PTCLDY    38  38  98 CALM      30.16F
SYLVANIA*      CLEAR     47  39  72 SE3       30.20F
MILLEDGEVILLE* MOCLDY    48  41  76 CALM      30.19F
$$

GAZ099>101-110>166-210700-
SOUTH GEORGIA

CITY           SKY/WX    TMP DP  RH WIND       PRES   REMARKS
SAVANNAH       MOCLDY    50  45  83 N5        30.19S
6HR MIN TEMP:  49; 6HR MAX TEMP:  52;

VALDOSTA       CLEAR     53  50  89 E3        30.14S
6HR MIN TEMP:  53; 6HR MAX TEMP:  60;

ALMA           CLOUDY    55  48  77 NE3       30.16F
6HR MIN TEMP:  54; 6HR MAX TEMP:  60;

ST SIMONS      CLOUDY    67  58  72 E6        30.14S
6HR MIN TEMP:  60; 6HR MAX TEMP:  67;

FT STEWART     CLOUDY    53  47  81 NE5       30.16F
ALBANY         PTCLDY    50  42  74 CALM      30.12F
HUNTER AFB     PTCLDY    53  47  82 NE5       30.15F
MOODY AFB      CLEAR     52  49  90 NE5       30.13S
BRUNSWICK      CLOUDY    55  52  88 CALM      30.16S


CITY           SKY/WX    TMP DP  RH WIND       PRES   REMARKS
BAINBRIDGE*    PTCLDY    50  46  87 CALM      30.12F
MOULTRIE*      PTCLDY    52  50  93 CALM      30.14F
VIDALIA*       CLOUDY    52  45  76 E7        30.18F
WAYCROSS*      CLOUDY    56  51  84 NE3       30.16S
DOUGLAS*       CLOUDY    54  48  82 E6        30.18S
$$




USA.gov is the U.S. government's official web portal to all federal, state and local government web resources and services.